SCOUT A R/B, 2755

Orbit data source: Space-Track

SCOUT A R/B, 2755 is space debris in LEO originally from a launch on Fri, 14 Apr 1967 UTC launched from the Air Force Western Test Range (AFWTR). Debris objects in space refer to the collection of defunct objects orbiting the Earth. Examples of debris include non-operational satellites, rocket bodies, and fragments generated from explosions, collisions, or faulty payload assembly.

Loading next visibility...
Identifier
2755, 1967-034B
Orbit
LEO
Country
Flag of USUS
Related business
Manufacturer
ABL
Mission
Spacecraft
Bus & Motor
ALTAIR, Unknown motor
Mass
33 kg wet, 33 kg dry
Launch date (UTC)
1967-04-14 (59 years ago)
Launch vehicle
Unknown
Launch site
Air Force Western Test Range (AFWTR)
Object type
Payload
Rocket body
Debris
Shape & HBR
Unknown
Radar Cross Section
Medium (>0.1 m² and <1 m²)

Expand to show TLE details & history
Last TLE update: 14 hours ago

TLE from 14 hours ago
0 SCOUT A R/B
1 02755U 67034B   25346.95143420  .00000083  00000-0  10959-3 0  9995
2 02755  90.2676  51.0559 0026010 170.2536   3.0489 13.54009029896830
Epoch: 2025-12-12T22:50Z
TLE epoch observation values (Epoch: 2025-12-12T22:50:03.914Z)
Latitude
6.60588°
Longitude
166.68473°
Altitude
1,040.574 km
Speed
7.341 km/s
True Right ascension
15h 24m 20s
True Declination
6° 34' 05"
Sunlit
Object was in daylight at epoch
Visualization orbit readout
Latitude
Unknown
Longitude
Unknown
Altitude
Unknown
Speed
Unknown
Apparent Right ascension
Unknown
Apparent Declination
Unknown
Sunlit
N/A
Visualization observer readout
Local Sidereal Time
11:27:43
Azimuth
Unknown
Elevation
Unknown
Doppler factor
Unknown
Orbital elements
Apogee altitude
1,073.922 km
Perigee altitude
1,035.256 km
Semi-major axis
7,432.726 km
Eccentricity
0.0026
Inclination
90.2676°
RAAN
51.0559°
Arg. of periapsis
170.2536°
True anomaly
3.0648°
Mean anomaly
3.0489°
Eccentric anomaly
3.05685°
Mean motion
3.38705 °/min
Orbital period
106.29 mins
BSTAR
0.00010959
Loading maneuver chart data...
Computing Atmospheric mass density...
Loading historical data...
Loading historical data...
Loading historical data...
Loading historical data...
Loading historical data...
Loading historical data...
Loading historical data...

Documentation

Showing up to 5 results
|